Weather History for KPRN - November, 2012

Change the Weather History Date:

Wednesday, November 7, 2012

  Actual Average Record
Temperature  
Mean Temperature 52 °F -  
Max Temperature 62 °F 69 °F 85 °F (1986)
Min Temperature 43 °F 44 °F 27 °F (1959)
Degree Days  
Heating Degree Days 12    
Growing Degree Days 2 (Base 50)    
Moisture  
Dew Point 39 °F    
Average Humidity 66    
Maximum Humidity 97    
Minimum Humidity 36    
Precipitation  
Precipitation 0.00 in - - ()
Sea Level Pressure  
Sea Level Pressure 30.00 in    
Wind  
Wind Speed 7 mph (NW)    
Max Wind Speed 16 mph    
Max Gust Speed 21 mph    
Visibility 9 miles    
Events      
Averages and records for this station are not official NWS values.
T = Trace of Precipitation, MM = Missing Value Source: NWS Daily Summary

Daily Weather History Graph

Daily Weather History Graph

Search for Another Location

Airport or City:

Trip Planner

Search our weather history database for the weather conditions in past years. The results will help you decide how hot, cold, wet, or windy it might be!

Date:

Astronomy

Nov. 07, 2012 Rise Set
Actual Time 6:08 AM CST 4:51 PM CST
Civil Twilight 5:42 AM CST 5:17 PM CST
Nautical Twilight 5:13 AM CST 5:46 PM CST
Astronomical Twilight 4:44 AM CST 6:14 PM CST
Moon No Moon Rise 12:38 PM CST (11/7)
Length of Visible Light 11h 34m
Length of Day
10h 43m
Last Quarter, 43% of the Moon is Illuminated
Nov 7
Last Quarter
Nov 13
New
Nov 20
First Quarter
Nov 28
Full
Dec 6
Last Quarter

Hourly Weather History & Observations

Time (CST) Temp. Windchill Dew Point Humidity Pressure Visibility Wind Dir Wind Speed Gust Speed Precip Events Conditions
12:56 AM 50.0 °F - 46.0 °F 86% 29.98 in 10.0 mi WNW 5.8 mph - N/A   Scattered Clouds
1:56 AM 48.9 °F - 46.0 °F 90% 29.98 in 10.0 mi West 5.8 mph - N/A   Mostly Cloudy
2:56 AM 46.9 °F - 45.0 °F 93% 29.96 in 10.0 mi West 4.6 mph - N/A   Clear
3:56 AM 46.0 °F 43.1 °F 44.1 °F 93% 29.96 in 8.0 mi WSW 5.8 mph - N/A   Clear
4:56 AM 45.0 °F 42.6 °F 43.0 °F 93% 29.97 in 7.0 mi West 4.6 mph - N/A   Clear
5:56 AM 43.0 °F 41.3 °F 42.1 °F 97% 29.99 in 7.0 mi West 3.5 mph - N/A   Clear
6:56 AM 44.1 °F 41.5 °F 42.1 °F 93% 30.00 in 6.0 mi West 4.6 mph - N/A   Clear
7:29 AM 46.4 °F 44.3 °F 42.8 °F 87% 30.01 in 8.0 mi West 4.6 mph - N/A   Partly Cloudy
7:56 AM 48.9 °F - 45.0 °F 86% 30.01 in 10.0 mi WSW 4.6 mph - N/A   Clear
8:56 AM 54.0 °F - 43.0 °F 66% 30.01 in 10.0 mi West 9.2 mph - N/A   Clear
9:56 AM 55.9 °F - 41.0 °F 57% 30.01 in 10.0 mi WNW 8.1 mph - N/A   Clear
10:56 AM 59.0 °F - 39.0 °F 48% 29.99 in 10.0 mi WNW 13.8 mph 18.4 mph N/A   Partly Cloudy
11:56 AM 61.0 °F - 36.0 °F 39% 29.95 in 10.0 mi NNW 9.2 mph 18.4 mph N/A   Partly Cloudy
12:56 PM 59.0 °F - 32.0 °F 36% 29.94 in 10.0 mi NW 9.2 mph 17.3 mph N/A   Scattered Clouds
1:56 PM 60.1 °F - 34.0 °F 38% 29.93 in 10.0 mi NNW 9.2 mph - N/A   Scattered Clouds
2:56 PM 62.1 °F - 35.1 °F 37% 29.93 in 10.0 mi NNW 13.8 mph 18.4 mph N/A   Mostly Cloudy
3:56 PM 59.0 °F - 37.0 °F 44% 29.95 in 10.0 mi NNW 6.9 mph - N/A   Overcast
4:56 PM 57.0 °F - 37.0 °F 47% 29.98 in 10.0 mi NW 4.6 mph - N/A   Overcast
5:56 PM 55.9 °F - 37.9 °F 51% 30.02 in 10.0 mi North 16.1 mph 20.7 mph 0.00 in   Overcast
6:56 PM 53.1 °F - 35.1 °F 50% 30.05 in 10.0 mi North 12.7 mph - N/A   Mostly Cloudy
7:56 PM 51.1 °F - 35.1 °F 54% 30.07 in 10.0 mi NW 5.8 mph - N/A   Clear
8:56 PM 48.9 °F - 36.0 °F 61% 30.10 in 10.0 mi NW 5.8 mph - N/A   Clear
9:56 PM 46.9 °F - 36.0 °F 66% 30.10 in 10.0 mi NNW 6.9 mph - N/A   Clear
10:56 PM 45.0 °F 41.8 °F 37.0 °F 74% 30.10 in 10.0 mi NNW 5.8 mph - N/A   Clear
11:56 PM 44.1 °F 40.8 °F 37.0 °F 76% 30.11 in 10.0 mi NNW 5.8 mph - N/A   Clear